Location: Gerlach
(40.6516°N, 119.3568°W)
Time: 05:43:10
(UTC-07:00)

Tiros 1 despin weight - Pass Details

Date: 22 February 2024
Orbit: 579 x 623 km, 48.2° (Epoch: 13 April)

Event Time Altitude Azimuth Distance (km) Brightness Sun altitude
Rises 18:35:57 0° 281° (W) 2,805 ? -11.3°
Reaches altitude 10° 18:40:08 10° 242° (WSW) 1,911 ? -12.0°
Maximum altitude 18:41:02 11° 230° (SW) 1,875 ? -12.2°
Drops below altitude 10° 18:41:57 10° 218° (SW) 1,914 ? -12.4°
Sets 18:46:11 0° 179° (S) 2,823 ? -13.2°
